Weather History for Orange, MA

Change the Weather History Date:

Wednesday, March 19, 2014

  Actual Average Record
Temperature  
Mean Temperature 28 °F -  
Max Temperature 41 °F 39 °F 75 °F (2012)
Min Temperature 16 °F 21 °F 10 °F (2007)
Degree Days  
Heating Degree Days 36    
Moisture  
Dew Point 22 °F    
Average Humidity 73    
Maximum Humidity 92    
Minimum Humidity 38    
Precipitation  
Precipitation 0.00 in - - ()
Sea Level Pressure  
Sea Level Pressure 30.18 in    
Wind  
Wind Speed 3 mph (ESE)    
Max Wind Speed 13 mph    
Max Gust Speed 21 mph    
Visibility 7 miles    
Events Fog , Rain , Snow    
Averages and records for this station are not official NWS values.
T = Trace of Precipitation, MM = Missing Value Source: NWS Daily Summary

Daily Weather History Graph

Daily Weather History Graph

Search for Another Location

Airport:

Trip Planner

Search our weather history database for the weather conditions in past years. The results will help you decide how hot, cold, wet, or windy it might be!

Date:

Astronomy

Mar. 19, 2014 Rise Set
Actual Time 6:54 AM EDT 7:00 PM EDT
Civil Twilight 6:26 AM EDT 7:28 PM EDT
Nautical Twilight 5:53 AM EDT 8:01 PM EDT
Astronomical Twilight 5:19 AM EDT 8:34 PM EDT
Moon 10:20 PM EDT (3/19) 8:14 AM EDT (3/19)
Length of Visible Light 13h 02m
Length of Day
12h 06m
Waning Gibbous, 91% of the Moon is Illuminated
Mar 19
Waning Gibbous
Mar 23
Last Quarter
Mar 30
New
Apr 7
First Quarter
Apr 15
Full

Hourly Weather History & Observations

Time (EDT) Temp. Windchill Dew Point Humidity Pressure Visibility Wind Dir Wind Speed Gust Speed Precip Events Conditions
12:52 AM 21.0 °F - 14.0 °F 74% 30.33 in 10.0 mi Calm Calm - N/A   Clear
1:52 AM 19.9 °F - 14.0 °F 78% 30.33 in 10.0 mi Calm Calm - N/A   Clear
2:52 AM 19.0 °F - 15.1 °F 85% 30.32 in 10.0 mi Calm Calm - N/A   Clear
3:52 AM 18.0 °F - 14.0 °F 84% 30.32 in 10.0 mi Calm Calm - N/A   Clear
4:52 AM 16.0 °F 10.4 °F 12.9 °F 88% 30.32 in 10.0 mi SSW 3.5 mph - N/A   Clear
5:52 AM 17.1 °F - 14.0 °F 88% 30.35 in 9.0 mi Calm Calm - N/A   Clear
6:52 AM 16.0 °F - 12.9 °F 88% 30.38 in 9.0 mi Calm Calm - N/A   Clear
7:52 AM 18.0 °F - 15.1 °F 88% 30.40 in 7.0 mi Calm Calm - N/A   Clear
8:52 AM 23.0 °F 18.4 °F 18.0 °F 81% 30.37 in 10.0 mi West 3.5 mph - N/A   Clear
9:52 AM 30.0 °F 26.5 °F 19.0 °F 64% 30.34 in 10.0 mi West 3.5 mph - N/A   Clear
10:52 AM 35.1 °F 28.6 °F 16.0 °F 46% 30.33 in 10.0 mi SSE 8.1 mph - N/A   Overcast
11:52 AM 36.0 °F 29.6 °F 17.1 °F 46% 30.30 in 10.0 mi SSE 8.1 mph - N/A   Overcast
12:52 PM 37.0 °F 31.0 °F 19.0 °F 48% 30.27 in 10.0 mi ESE 8.1 mph - N/A   Overcast
1:52 PM 37.9 °F 32.1 °F 19.0 °F 47% 30.24 in 10.0 mi SE 8.1 mph - N/A   Overcast
2:52 PM 39.0 °F 31.8 °F 18.0 °F 43% 30.20 in 10.0 mi SE 11.5 mph - N/A   Overcast
3:52 PM 39.0 °F 32.3 °F 18.0 °F 43% 30.18 in 10.0 mi SSE 10.4 mph - 0.00 in Rain Light Rain
4:52 PM 41.0 °F 33.9 °F 18.0 °F 40% 30.13 in 10.0 mi SE 12.7 mph 20.7 mph 0.00 in   Overcast
5:52 PM 41.0 °F 37.1 °F 17.1 °F 38% 30.12 in 10.0 mi ESE 5.8 mph - N/A   Overcast
6:52 PM 39.0 °F 34.0 °F 24.1 °F 55% 30.10 in 10.0 mi East 6.9 mph - 0.00 in Rain Light Rain
7:52 PM 36.0 °F 31.1 °F 27.0 °F 70% 30.11 in 8.0 mi East 5.8 mph - 0.00 in Snow Light Snow
8:52 PM 34.0 °F 27.2 °F 28.9 °F 82% 30.05 in 9.0 mi East 8.1 mph - 0.00 in Rain Light Rain
9:46 PM 33.8 °F 29.6 °F 28.4 °F 81% 30.04 in 1.8 mi East 4.6 mph - 0.00 in Snow Light Snow
9:52 PM 33.1 °F 27.7 °F 30.0 °F 89% 30.06 in 1.2 mi East 5.8 mph - 0.00 in Snow Light Snow
9:56 PM 33.1 °F 27.7 °F 30.0 °F 89% 30.04 in 0.8 mi ESE 5.8 mph - 0.00 in Snow Light Snow
10:00 PM 32.0 °F 25.6 °F 30.0 °F 92% 30.03 in 0.5 mi East 6.9 mph - 0.00 in Fog , Snow Snow
10:16 PM 32.0 °F 25.6 °F 30.0 °F 92% 30.01 in 1.2 mi East 6.9 mph - 0.00 in Snow Light Snow
10:22 PM 32.0 °F 27.5 °F 30.0 °F 92% 30.00 in 2.0 mi East 4.6 mph - 0.00 in Snow Light Snow
10:30 PM 32.0 °F 25.6 °F 30.0 °F 92% 29.98 in 6.0 mi East 6.9 mph - 0.00 in   Overcast
10:52 PM 32.0 °F 27.5 °F 28.9 °F 88% 29.99 in 7.0 mi Variable 4.6 mph - 0.00 in   Overcast
11:07 PM 32.0 °F - 28.9 °F 88% 29.97 in 4.0 mi Calm Calm - 0.00 in Rain Light Freezing Rain
11:52 PM 32.0 °F 27.5 °F 30.0 °F 92% 30.00 in 4.0 mi NW 4.6 mph - N/A Rain Light Freezing Rain